Location: Grange Verzio
(44.5000°N, 6.9833°E)
Time: 06:01:36
(UTC+00:00)

Gblst 52 Del rocket - Pass Details

Date: 01 February 2023
Orbit: 805 x 1364 km, 51.5° (Epoch: 21 March)

Event Time Altitude Azimuth Distance (km) Brightness Sun altitude
Rises 18:28:47 0° 251° (WSW) 3,418 8.8 -19.4°
Reaches altitude 10° 18:31:21 10° 255° (WSW) 2,439 7.8 -19.9°
Maximum altitude 18:36:55 64° 336° (NNW) 895 4.3 -20.9°
Enters shadow 18:39:07 35° 45° (NE) 1,269 4.7 -21.3°
